COSMOS 1275 DEB, 12694

Orbit data source: Space-Track

COSMOS 1275 DEB, 12694 is space debris in LEO originally from a launch on Thu, 04 Jun 1981 UTC launched from the Plesetsk Missile And Space Complex (PKMTR). Debris objects in space refer to the collection of defunct objects orbiting the Earth. Examples of debris include non-operational satellites, rocket bodies, and fragments generated from explosions, collisions, or faulty payload assembly.

Loading next visibility...
Identifier
12694, 1981-053AN
Orbit
LEO
Last TLE update
19 hours ago
Origin
Manufacturer
Unknown
Mission
Spacecraft
Bus & Motor
Unknown
Mass
Unknown
Launch date (UTC)
1981-06-04 (44 years ago)
Launch vehicle
Unknown
Launch site
Plesetsk Missile And Space Complex (PKMTR)
Object type
Payload
Rocket body
Debris
Shape & HBR
Unknown
Radar Cross Section
Small (<0.1 m²)

Expand to show TLE details & history

TLE from 19 hours ago
0 COSMOS 1275 DEB
1 12694U 81053AN  25185.94211832  .00000376  00000-0  44628-3 0  9993
2 12694  83.0827 346.6682 0116059 115.3004  10.9370 13.62086676175696
Epoch: 2025-07-04T22:36Z
TLE epoch observation values (Epoch: 2025-07-04T22:36:39.022Z)
Latitude
53.04485°
Longitude
-104.91273°
Altitude
952.393 km
Speed
7.423 km/s
True Right ascension
10h 29m 44s
True Declination
52° 53' 02"
Sunlit
Object was in daylight at epoch
Visualization orbit readout
Latitude
-7.52558°
Longitude
82.84989°
Altitude
1,075.292 km
Speed
7.293 km/s
Apparent Right ascension
20h 51m 33s
Apparent Declination
-28° 52' 16"
Sunlit
Object is in daylight
Visualization observer readout
Local Sidereal Time
05:16:38
Azimuth
266.926° W
Elevation
-45.004°
Doppler factor
1
Orbital elements
Apogee altitude
1,111.203 km
Perigee altitude
939.356 km
Semi-major axis
7,403.416 km
Eccentricity
0.01161
Inclination
83.0827°
RAAN
346.6682°
Arg. of periapsis
115.3004°
True anomaly
Unknown
Mean anomaly
10.937°
Eccentric anomaly
Unknown
Mean motion
3.40718 °/min
Orbital period
105.66 mins
BSTAR
0.00044628
Loading maneuver chart data...
Loading SW <> Apogee altitude chart data...
Loading historical data...
Loading historical data...
Loading historical data...
Loading historical data...
Loading historical data...
Loading historical data...
Loading historical data...

COSMOS 1275 DEB Visibility forecast

Observer location: undefined°, undefined°

Span
Click to sort rows by Start time (UTC) header in descending order
Start Az.
Max El. time (UTC)
Max El. Az.
Max El.
End time (UTC)
End Az.
9 mins2025-07-05 21:30:17.151Z20.85° NNE2025-07-05 21:35:17.151Z80.201° E22.666°2025-07-05 21:39:17.151Z123.968° SE
9 mins2025-07-05 23:17:17.151Z333.72° NNW2025-07-05 23:21:17.151Z274.671° WNW35.02°2025-07-05 23:26:17.151Z203.197° SW
10 mins2025-07-06 11:08:17.151Z173.625° S2025-07-06 11:13:17.151Z77.404° E43.194°2025-07-06 11:18:17.151Z12.813° NNE
6 mins2025-07-06 12:57:17.151Z261.285° W2025-07-06 13:00:17.151Z293.24° NW16.367°2025-07-06 13:03:17.151Z324.605° NNW
|